Weather History for FAGG - November, 2012

Change the Weather History Date:

Tuesday, November 6, 2012

  Actual Average Record
Temperature  
Mean Temperature 63 °F -  
Max Temperature 71 °F 70 °F 78 °F (2013)
Min Temperature 55 °F 54 °F 44 °F (1998)
Degree Days  
Heating Degree Days 2    
Growing Degree Days 13 (Base 50)    
Moisture  
Dew Point 56 °F    
Average Humidity 79    
Maximum Humidity 94    
Minimum Humidity 54    
Precipitation  
Precipitation 0.02 in - - ()
Sea Level Pressure  
Sea Level Pressure 30.07 in    
Wind  
Wind Speed 5 mph ()    
Max Wind Speed 10 mph    
Max Gust Speed -    
Visibility 7.4 miles    
Events      
Averages and records for this station are not official NWS values.
T = Trace of Precipitation, MM = Missing Value Source: Averaged Metar Reports

Daily Weather History Graph

Daily Weather History Graph

Search for Another Location

Airport or City:

Trip Planner

Search our weather history database for the weather conditions in past years. The results will help you decide how hot, cold, wet, or windy it might be!

Date:

Astronomy

Nov. 06, 2012 Rise Set
Actual Time 5:24 AM SAST 7:03 PM SAST
Civil Twilight 4:58 AM SAST 7:30 PM SAST
Nautical Twilight 4:25 AM SAST 8:03 PM SAST
Astronomical Twilight 3:51 AM SAST 8:37 PM SAST
Moon 12:21 AM SAST (11/6) 11:20 AM SAST (11/6)
Length of Visible Light 14h 32m
Length of Day
13h 38m
Waning Gibbous, 56% of the Moon is Illuminated
Nov 6
Waning Gibbous
Nov 7
Last Quarter
Nov 14
New
Nov 20
First Quarter
Nov 28
Full

Hourly Weather History & Observations

Time (SAST) Temp. Dew Point Humidity Pressure Visibility Wind Dir Wind Speed Gust Speed Precip Events Conditions
12:00 AM 57.2 °F 55.4 °F 94% 30.04 in 5.0 mi NNW 4.6 mph - N/A   Scattered Clouds
1:00 AM 57.2 °F 55.4 °F 94% 30.04 in 5.0 mi NW 5.8 mph - N/A   Unknown
2:00 AM 56 °F 54 °F 91% 30.04 in 5 mi NW 4.6 mph - -  
2:00 AM 57.2 °F 53.6 °F 88% 30.04 in 5.0 mi NW 4.6 mph - N/A   Unknown
3:00 AM 57.2 °F 53.6 °F 88% 30.01 in 5.6 mi NNW 3.5 mph - N/A   Unknown
4:00 AM 57.2 °F 53.6 °F 88% 30.01 in - NNW 3.5 mph - N/A   Clear
5:00 AM 56 °F 54 °F 89% 30.01 in 12 mi West 3.5 mph - -   Clear
5:00 AM 57.2 °F 53.6 °F 88% 30.01 in - WNW 3.5 mph - N/A   Clear
6:00 AM 57.2 °F 53.6 °F 88% 30.01 in - WNW 4.6 mph - N/A   Clear
7:00 AM 59.0 °F 55.4 °F 88% 30.04 in - West 5.8 mph - N/A   Clear
8:00 AM 63 °F 56 °F 73% 30.06 in 12 mi West 5.8 mph - -  
8:00 AM 64.4 °F 57.2 °F 77% 30.06 in - West 5.8 mph - N/A   Clear
9:00 AM 66.2 °F 55.4 °F 68% 30.06 in - SW 4.6 mph - N/A   Clear
10:00 AM 68.0 °F 57.2 °F 68% 30.06 in - South 6.9 mph - N/A   Clear
11:00 AM 70 °F 57 °F 54% 30.06 in 12 mi SSW 5.8 mph - -   Scattered Clouds
11:00 AM 69.8 °F 57.2 °F 64% 30.06 in 6.2 mi SSW 6.9 mph - N/A   Partly Cloudy
12:00 PM 69.8 °F 59.0 °F 68% 30.06 in 6.2 mi SSE 8.1 mph - N/A   Partly Cloudy
1:00 PM 69.8 °F 59.0 °F 68% 30.06 in 6.2 mi South 6.9 mph - N/A   Partly Cloudy
2:00 PM 69 °F 57 °F 57% 30.06 in 12 mi South 9.2 mph - -   Scattered Clouds
2:00 PM 68.0 °F 57.2 °F 68% 30.06 in 6.2 mi South 10.4 mph - N/A   Partly Cloudy
3:00 PM 68.0 °F 57.2 °F 68% 30.06 in 6.2 mi South 8.1 mph - N/A   Partly Cloudy
4:00 PM 64.4 °F 57.2 °F 77% 30.06 in 6.2 mi South 8.1 mph - N/A   Scattered Clouds
5:00 PM 64 °F 58 °F 74% 30.09 in 12 mi SSW 9.2 mph - -   Mostly Cloudy
5:00 PM 64.4 °F 57.2 °F 77% 30.09 in 6.2 mi SSW 8.1 mph - N/A   Scattered Clouds
6:00 PM 62.6 °F 57.2 °F 82% 30.12 in 6.2 mi SSW 5.8 mph - N/A   Scattered Clouds
7:00 PM 60.8 °F 55.4 °F 82% 30.12 in 6.2 mi WNW 4.6 mph - N/A   Partly Cloudy
8:00 PM 61 °F 56 °F 80% 30.15 in 12 mi WNW 3.5 mph - -   Scattered Clouds
8:00 PM 60.8 °F 55.4 °F 82% 30.15 in 6.2 mi West 3.5 mph - N/A   Partly Cloudy
9:00 PM 60.8 °F 57.2 °F 88% 30.18 in 6.2 mi SW 6.9 mph - N/A   Mostly Cloudy
10:00 PM 60.8 °F 57.2 °F 88% 30.18 in 6.2 mi NW 3.5 mph - N/A   Mostly Cloudy
11:00 PM 60.8 °F 57.2 °F 88% 30.18 in 6.2 mi NW 5.8 mph - N/A   Overcast